Grand Canyon, AZ

11:12 AM MST on October 01, 2016 (GMT -0700)
Grand Canyon National Park

Weather History for KGCN - November, 2013

Change the Weather History Date:

Thursday, November 7, 2013

  Actual Average Record
Temperature  
Mean Temperature 42 °F -  
Max Temperature 60 °F 51 °F 71 °F (2007)
Min Temperature 24 °F 22 °F 12 °F (1996)
Degree Days  
Heating Degree Days 23    
Moisture  
Dew Point 9 °F    
Average Humidity 30    
Maximum Humidity 53    
Minimum Humidity 15    
Precipitation  
Precipitation 0.00 in - - ()
Sea Level Pressure  
Sea Level Pressure 30.30 in    
Wind  
Wind Speed 6 mph (ENE)    
Max Wind Speed 14 mph    
Max Gust Speed 20 mph    
Visibility 10 miles    
Events      
Averages and records for this station are not official NWS values.
T = Trace of Precipitation, MM = Missing Value Source: NWS Daily Summary

Daily Weather History Graph

Daily Weather History Graph

Search for Another Location

Airport or City:

Trip Planner

Search our weather history database for the weather conditions in past years. The results will help you decide how hot, cold, wet, or windy it might be!

Date:

Astronomy

Nov. 07, 2013 Rise Set
Actual Time 6:57 AM MST 5:26 PM MST
Civil Twilight 6:30 AM MST 5:53 PM MST
Nautical Twilight 5:59 AM MST 6:24 PM MST
Astronomical Twilight 5:29 AM MST 6:54 PM MST
Moon 11:07 AM MST (11/7) 9:43 PM MST (11/7)
Length of Visible Light 11h 23m
Length of Day
10h 29m
Waxing Crescent, 23% of the Moon is Illuminated
Nov 7
Waxing Crescent
Nov 9
First Quarter
Nov 17
Full
Nov 25
Last Quarter
Dec 2
New

Hourly Weather History & Observations

Time (MST) Temp. Windchill Dew Point Humidity Pressure Visibility Wind Dir Wind Speed Gust Speed Precip Events Conditions
12:54 AM 24.1 °F 17.0 °F 5.0 °F 44% 30.41 in 10.0 mi NE 5.8 mph - N/A   Clear
1:54 AM 25.0 °F 20.7 °F 5.0 °F 43% 30.38 in 10.0 mi NE 3.5 mph - N/A   Clear
2:54 AM 28.9 °F 22.8 °F 3.9 °F 35% 30.36 in 10.0 mi East 5.8 mph - N/A   Clear
3:54 AM 24.1 °F 18.2 °F 6.1 °F 46% 30.38 in 10.0 mi ENE 4.6 mph - N/A   Clear
4:54 AM 36.0 °F 29.0 °F 1.9 °F 24% 30.35 in 10.0 mi ENE 9.2 mph - N/A   Clear
5:54 AM 37.9 °F 32.1 °F 1.9 °F 22% 30.36 in 10.0 mi East 8.1 mph - N/A   Clear
6:54 AM 37.9 °F 31.5 °F 1.9 °F 22% 30.42 in 10.0 mi East 9.2 mph - N/A   Clear
7:54 AM 41.0 °F 35.8 °F 3.9 °F 21% 30.40 in 10.0 mi East 8.1 mph - N/A   Clear
8:54 AM 46.9 °F - 7.0 °F 20% 30.38 in 10.0 mi ENE 9.2 mph - N/A   Clear
9:54 AM 51.1 °F - 12.0 °F 21% 30.34 in 10.0 mi ESE 10.4 mph 17.3 mph N/A   Clear
10:54 AM 53.1 °F - 12.0 °F 20% 30.35 in 10.0 mi ENE 12.7 mph 19.6 mph N/A   Clear
11:54 AM 55.9 °F - 12.0 °F 18% 30.33 in 10.0 mi ESE 13.8 mph - N/A   Clear
12:54 PM 57.0 °F - 12.0 °F 17% 30.29 in 10.0 mi ESE 9.2 mph - N/A   Clear
1:54 PM 57.9 °F - 10.0 °F 15% 30.25 in 10.0 mi Calm Calm - N/A   Clear
2:54 PM 60.1 °F - 12.0 °F 15% 30.20 in 10.0 mi Calm Calm - N/A   Clear
3:54 PM 59.0 °F - 12.9 °F 16% 30.22 in 10.0 mi NNE 4.6 mph - N/A   Clear
4:54 PM 51.1 °F - 12.0 °F 21% 30.21 in 8.0 mi NE 5.8 mph - N/A   Clear
5:54 PM 42.1 °F - 10.9 °F 28% 30.23 in 10.0 mi Calm Calm - N/A   Clear
6:54 PM 35.1 °F - 12.0 °F 39% 30.26 in 10.0 mi Calm Calm - N/A   Clear
7:54 PM 32.0 °F - 12.0 °F 44% 30.26 in 10.0 mi Calm Calm - N/A   Clear
8:54 PM 28.9 °F - 10.9 °F 47% 30.25 in 10.0 mi Calm Calm - N/A   Clear
9:54 PM 27.0 °F - 10.0 °F 49% 30.24 in 10.0 mi Calm Calm - N/A   Clear
10:54 PM 25.0 °F - 10.0 °F 53% 30.22 in 10.0 mi Calm Calm - N/A   Clear
11:54 PM 27.0 °F - 10.9 °F 51% 30.19 in 10.0 mi Calm Calm - N/A   Clear